Time,TemperatureF,DewpointF,PressureIn,WindDirection,WindDirectionDegrees,WindSpeedMPH,WindSpeedGustMPH,Humidity,HourlyPrecipIn,Conditions,Clouds,dailyrainin,SoftwareType,DateUTC
2013-09-08 00:00:00,56.1,54.7,21.34,NE,39,0.0,0.0,95,-99.99,,CLR,-99.99,VWS V14.01,2013-09-08 05:00:00,
2013-09-08 00:05:00,56.0,54.6,21.34,NE,39,0.0,0.0,95,-99.99,,CLR,-99.99,VWS V14.01,2013-09-08 05:05:00,
2013-09-08 00:10:00,56.0,54.9,21.34,ENE,61,0.0,0.0,96,-99.99,,CLR,-99.99,VWS V14.01,2013-09-08 05:10:00,
2013-09-08 00:15:00,56.3,55.5,21.34,ENE,78,0.0,3.0,97,-99.99,,CLR,-99.99,VWS V14.01,2013-09-08 05:15:00,
2013-09-08 00:20:00,56.7,55.9,21.34,East,94,0.0,4.0,97,-99.99,,CLR,-99.99,VWS V14.01,2013-09-08 05:20:00,
2013-09-08 00:25:00,57.3,56.5,21.34,East,95,0.0,4.0,97,-99.99,,CLR,-99.99,VWS V14.01,2013-09-08 05:25:00,
2013-09-08 00:30:00,57.8,56.4,21.33,East,100,0.0,0.0,95,-99.99,,CLR,-99.99,VWS V14.01,2013-09-08 05:30:00,
2013-09-08 00:35:00,58.1,56.4,21.34,East,95,0.0,0.0,94,-99.99,,CLR,-99.99,VWS V14.01,2013-09-08 05:35:00,
2013-09-08 00:40:00,58.4,56.7,21.34,East,84,0.0,1.0,94,-99.99,,CLR,-99.99,VWS V14.01,2013-09-08 05:40:00,
2013-09-08 00:46:00,58.8,56.8,21.34,ENE,74,3.0,6.0,93,-99.99,,CLR,-99.99,VWS V14.01,2013-09-08 05:46:00,
2013-09-08 00:51:00,59.1,56.8,21.34,ENE,63,0.0,7.0,92,-99.99,,CLR,-99.99,VWS V14.01,2013-09-08 05:51:00,
2013-09-08 00:56:00,59.6,56.7,21.34,ESE,119,0.0,7.0,90,-99.99,,CLR,-99.99,VWS V14.01,2013-09-08 05:56:00,
2013-09-08 01:01:00,59.9,57.0,21.34,ENE,59,0.0,0.0,90,-99.99,,CLR,-99.99,VWS V14.01,2013-09-08 06:01:00,
2013-09-08 01:06:00,60.1,56.8,21.34,ENE,73,0.0,5.0,89,-99.99,,CLR,-99.99,VWS V14.01,2013-09-08 06:06:00,
2013-09-08 01:11:00,60.1,56.8,21.34,ESE,123,0.0,7.0,89,-99.99,,CLR,-99.99,VWS V14.01,2013-09-08 06:11:00,
2013-09-08 01:16:00,60.2,57.3,21.34,ENE,65,0.0,7.0,90,-99.99,,CLR,-99.99,VWS V14.01,2013-09-08 06:16:00,
2013-09-08 01:21:00,60.3,57.0,21.34,ESE,111,0.0,7.0,89,-99.99,,CLR,-99.99,VWS V14.01,2013-09-08 06:21:00,
2013-09-08 01:26:00,60.3,57.0,21.34,East,91,0.0,7.0,89,-99.99,,CLR,-99.99,VWS V14.01,2013-09-08 06:26:00,
2013-09-08 01:31:00,60.3,57.0,21.34,ENE,72,0.0,3.0,89,-99.99,,CLR,-99.99,VWS V14.01,2013-09-08 06:31:00,
2013-09-08 01:36:00,60.3,57.0,21.34,East,99,0.0,3.0,89,-99.99,,CLR,-99.99,VWS V14.01,2013-09-08 06:36:00,
2013-09-08 01:41:00,60.1,56.8,21.33,East,94,0.0,3.0,89,-99.99,,CLR,-99.99,VWS V14.01,2013-09-08 06:41:00,
2013-09-08 01:46:00,59.9,57.0,21.33,East,94,0.0,3.0,90,-99.99,,CLR,-99.99,VWS V14.01,2013-09-08 06:46:00,
2013-09-08 01:51:00,59.6,56.7,21.33,East,94,0.0,3.0,90,-99.99,,CLR,-99.99,VWS V14.01,2013-09-08 06:51:00,
2013-09-08 01:56:00,59.3,56.7,21.32,East,94,0.0,3.0,91,-99.99,,CLR,-99.99,VWS V14.01,2013-09-08 06:56:00,
2013-09-08 02:01:00,59.1,56.5,21.32,East,94,0.0,0.0,91,-99.99,,CLR,-99.99,VWS V14.01,2013-09-08 07:01:00,
2013-09-08 02:07:00,58.9,56.3,21.32,East,101,0.0,0.0,91,-99.99,,CLR,-99.99,VWS V14.01,2013-09-08 07:07:00,
2013-09-08 02:12:00,58.8,56.2,21.32,East,94,0.0,0.0,91,-99.99,,CLR,-99.99,VWS V14.01,2013-09-08 07:12:00,
2013-09-08 02:17:00,58.7,56.1,21.32,ESE,108,0.0,0.0,91,-99.99,,CLR,-99.99,VWS V14.01,2013-09-08 07:17:00,
2013-09-08 02:22:00,58.6,55.7,21.32,ESE,103,0.0,3.0,90,-99.99,,CLR,-99.99,VWS V14.01,2013-09-08 07:22:00,
2013-09-08 02:27:00,58.6,55.7,21.31,ESE,103,0.0,3.0,90,-99.99,,CLR,-99.99,VWS V14.01,2013-09-08 07:27:00,
2013-09-08 02:32:00,58.5,55.3,21.31,ESE,103,0.0,0.0,89,-99.99,,CLR,-99.99,VWS V14.01,2013-09-08 07:32:00,
2013-09-08 02:37:00,58.4,55.5,21.31,East,80,0.0,0.0,90,-99.99,,CLR,-99.99,VWS V14.01,2013-09-08 07:37:00,
2013-09-08 02:42:00,58.3,55.4,21.31,East,79,0.0,0.0,90,-99.99,,CLR,-99.99,VWS V14.01,2013-09-08 07:42:00,
2013-09-08 02:47:00,58.1,55.2,21.31,East,79,0.0,0.0,90,-99.99,,CLR,-99.99,VWS V14.01,2013-09-08 07:47:00,
2013-09-08 02:52:00,57.9,55.0,21.31,East,79,0.0,0.0,90,-99.99,,CLR,-99.99,VWS V14.01,2013-09-08 07:52:00,
2013-09-08 02:57:00,57.7,55.1,21.31,East,79,0.0,0.0,91,-99.99,,CLR,-99.99,VWS V14.01,2013-09-08 07:57:00,
2013-09-08 03:02:00,57.3,55.0,21.31,East,79,0.0,0.0,92,-99.99,,CLR,-99.99,VWS V14.01,2013-09-08 08:02:00,
2013-09-08 03:07:00,56.9,54.6,21.31,East,79,0.0,0.0,92,-99.99,,CLR,-99.99,VWS V14.01,2013-09-08 08:07:00,
2013-09-08 03:12:00,56.6,54.6,21.31,East,79,0.0,0.0,93,-99.99,,CLR,-99.99,VWS V14.01,2013-09-08 08:12:00,
2013-09-08 03:17:00,56.3,54.3,21.31,East,79,0.0,0.0,93,-99.99,,CLR,-99.99,VWS V14.01,2013-09-08 08:17:00,
2013-09-08 03:22:00,56.0,54.0,21.31,East,79,0.0,0.0,93,-99.99,,CLR,-99.99,VWS V14.01,2013-09-08 08:22:00,
2013-09-08 03:28:00,55.8,54.1,21.32,East,79,0.0,0.0,94,-99.99,,CLR,-99.99,VWS V14.01,2013-09-08 08:28:00,
2013-09-08 03:33:00,55.6,53.9,21.32,East,79,0.0,0.0,94,-99.99,,CLR,-99.99,VWS V14.01,2013-09-08 08:33:00,
2013-09-08 03:38:00,55.4,53.7,21.32,East,79,0.0,0.0,94,-99.99,,CLR,-99.99,VWS V14.01,2013-09-08 08:38:00,
2013-09-08 03:43:00,55.3,53.6,21.32,East,79,0.0,0.0,94,-99.99,,CLR,-99.99,VWS V14.01,2013-09-08 08:43:00,
2013-09-08 03:48:00,55.1,53.7,21.32,East,79,0.0,0.0,95,-99.99,,CLR,-99.99,VWS V14.01,2013-09-08 08:48:00,
2013-09-08 03:53:00,55.0,53.3,21.32,East,79,0.0,0.0,94,-99.99,,CLR,-99.99,VWS V14.01,2013-09-08 08:53:00,
2013-09-08 03:58:00,54.9,53.5,21.32,East,79,0.0,0.0,95,-99.99,,CLR,-99.99,VWS V14.01,2013-09-08 08:58:00,
2013-09-08 04:03:00,54.7,53.3,21.32,East,79,0.0,0.0,95,-99.99,,CLR,-99.99,VWS V14.01,2013-09-08 09:03:00,
2013-09-08 04:09:00,54.5,53.1,21.31,East,79,0.0,0.0,95,-99.99,,CLR,-99.99,VWS V14.01,2013-09-08 09:09:00,
2013-09-08 04:14:00,54.4,53.0,21.32,East,79,0.0,0.0,95,-99.99,,CLR,-99.99,VWS V14.01,2013-09-08 09:14:00,
2013-09-08 04:19:00,54.3,52.9,21.32,East,79,0.0,0.0,95,-99.99,,CLR,-99.99,VWS V14.01,2013-09-08 09:19:00,
2013-09-08 04:24:00,54.2,52.8,21.32,East,79,0.0,0.0,95,-99.99,,CLR,-99.99,VWS V14.01,2013-09-08 09:24:00,
2013-09-08 04:29:00,54.1,53.0,21.32,East,79,0.0,0.0,96,-99.99,,CLR,-99.99,VWS V14.01,2013-09-08 09:29:00,
2013-09-08 04:34:00,53.9,52.8,21.32,East,79,0.0,0.0,96,-99.99,,CLR,-99.99,VWS V14.01,2013-09-08 09:34:00,
2013-09-08 04:39:00,53.8,52.4,21.32,East,79,0.0,0.0,95,-99.99,,CLR,-99.99,VWS V14.01,2013-09-08 09:39:00,
2013-09-08 04:44:00,53.6,52.5,21.31,East,79,0.0,0.0,96,-99.99,,CLR,-99.99,VWS V14.01,2013-09-08 09:44:00,
2013-09-08 04:49:00,53.5,52.1,21.32,East,79,0.0,0.0,95,-99.99,,CLR,-99.99,VWS V14.01,2013-09-08 09:49:00,
2013-09-08 04:54:00,53.4,52.3,21.31,East,79,0.0,0.0,96,-99.99,,CLR,-99.99,VWS V14.01,2013-09-08 09:54:00,
2013-09-08 04:59:00,53.3,52.2,21.31,East,79,0.0,0.0,96,-99.99,,CLR,-99.99,VWS V14.01,2013-09-08 09:59:00,
2013-09-08 05:04:00,53.2,52.1,21.31,East,79,0.0,0.0,96,-99.99,,CLR,-99.99,VWS V14.01,2013-09-08 10:04:00,
2013-09-08 05:09:00,53.0,51.9,21.30,East,79,0.0,0.0,96,-99.99,,CLR,-99.99,VWS V14.01,2013-09-08 10:09:00,
2013-09-08 05:14:00,52.9,52.1,21.30,East,79,0.0,0.0,97,-99.99,,CLR,-99.99,VWS V14.01,2013-09-08 10:14:00,
2013-09-08 05:19:00,52.8,52.0,21.30,East,79,0.0,0.0,97,-99.99,,CLR,-99.99,VWS V14.01,2013-09-08 10:19:00,
2013-09-08 05:24:00,52.8,52.0,21.30,East,79,0.0,0.0,97,-99.99,,CLR,-99.99,VWS V14.01,2013-09-08 10:24:00,
2013-09-08 05:30:00,52.7,51.9,21.30,East,79,0.0,0.0,97,-99.99,,CLR,-99.99,VWS V14.01,2013-09-08 10:30:00,
2013-09-08 05:35:00,52.7,51.9,21.30,East,79,0.0,0.0,97,-99.99,,CLR,-99.99,VWS V14.01,2013-09-08 10:35:00,
2013-09-08 05:40:00,52.6,51.8,21.30,East,79,0.0,0.0,97,-99.99,,CLR,-99.99,VWS V14.01,2013-09-08 10:40:00,
2013-09-08 05:45:00,52.6,51.8,21.30,East,79,0.0,0.0,97,-99.99,,CLR,-99.99,VWS V14.01,2013-09-08 10:45:00,
2013-09-08 05:50:00,52.6,51.8,21.29,East,79,0.0,0.0,97,-99.99,,CLR,-99.99,VWS V14.01,2013-09-08 10:50:00,
2013-09-08 05:55:00,52.6,51.8,21.29,East,79,0.0,0.0,97,-99.99,,CLR,-99.99,VWS V14.01,2013-09-08 10:55:00,
2013-09-08 06:00:00,52.5,52.0,21.29,East,79,0.0,0.0,98,-99.99,,CLR,-99.99,VWS V14.01,2013-09-08 11:00:00,
2013-09-08 06:05:00,52.6,52.0,21.29,East,79,0.0,0.0,98,-99.99,,CLR,-99.99,VWS V14.01,2013-09-08 11:05:00,
2013-09-08 06:10:00,52.6,51.8,21.30,East,79,0.0,0.0,97,-99.99,,CLR,-99.99,VWS V14.01,2013-09-08 11:10:00,
2013-09-08 06:15:00,52.6,52.0,21.30,East,79,0.0,0.0,98,-99.99,,CLR,-99.99,VWS V14.01,2013-09-08 11:15:00,
2013-09-08 06:20:00,52.5,52.0,21.31,East,79,0.0,0.0,98,-99.99,,CLR,-99.99,VWS V14.01,2013-09-08 11:20:00,
2013-09-08 06:25:00,52.5,52.0,21.30,East,79,0.0,0.0,98,-99.99,,CLR,-99.99,VWS V14.01,2013-09-08 11:25:00,
2013-09-08 06:30:00,52.3,51.5,21.30,East,79,0.0,0.0,97,-99.99,,CLR,-99.99,VWS V14.01,2013-09-08 11:30:00,
2013-09-08 06:35:00,52.2,51.4,21.31,East,79,0.0,0.0,97,-99.99,,CLR,-99.99,VWS V14.01,2013-09-08 11:35:00,
2013-09-08 06:40:00,52.2,51.4,21.31,East,79,0.0,0.0,97,-99.99,,CLR,-99.99,VWS V14.01,2013-09-08 11:40:00,
2013-09-08 06:45:00,52.1,51.3,21.31,East,79,0.0,0.0,97,-99.99,,CLR,-99.99,VWS V14.01,2013-09-08 11:45:00,
2013-09-08 06:50:00,52.0,51.2,21.31,East,79,0.0,0.0,97,-99.99,,CLR,-99.99,VWS V14.01,2013-09-08 11:50:00,
2013-09-08 06:55:00,51.9,51.1,21.31,East,79,0.0,0.0,97,-99.99,,CLR,-99.99,VWS V14.01,2013-09-08 11:55:00,
2013-09-08 07:01:00,51.9,51.1,21.31,East,79,0.0,0.0,97,-99.99,,CLR,-99.99,VWS V14.01,2013-09-08 12:01:00,
2013-09-08 07:06:00,51.9,51.4,21.31,East,79,0.0,0.0,98,-99.99,,CLR,-99.99,VWS V14.01,2013-09-08 12:06:00,
2013-09-08 07:11:00,51.9,51.4,21.30,East,79,0.0,0.0,98,-99.99,,CLR,-99.99,VWS V14.01,2013-09-08 12:11:00,
2013-09-08 07:16:00,51.9,51.4,21.31,East,79,0.0,0.0,98,-99.99,,CLR,-99.99,VWS V14.01,2013-09-08 12:16:00,
2013-09-08 07:21:00,52.0,51.2,21.30,East,79,0.0,0.0,97,-99.99,,CLR,-99.99,VWS V14.01,2013-09-08 12:21:00,
2013-09-08 07:26:00,52.1,51.5,21.30,East,79,0.0,0.0,98,-99.99,,CLR,-99.99,VWS V14.01,2013-09-08 12:26:00,
2013-09-08 07:31:00,52.3,51.8,21.30,East,79,0.0,0.0,98,-99.99,,CLR,-99.99,VWS V14.01,2013-09-08 12:31:00,
2013-09-08 07:36:00,52.5,52.0,21.30,East,79,0.0,0.0,98,-99.99,,CLR,-99.99,VWS V14.01,2013-09-08 12:36:00,
2013-09-08 07:41:00,52.8,52.5,21.30,East,79,0.0,0.0,99,-99.99,,CLR,-99.99,VWS V14.01,2013-09-08 12:41:00,
2013-09-08 07:46:00,53.2,52.9,21.30,East,79,0.0,0.0,99,-99.99,,CLR,-99.99,VWS V14.01,2013-09-08 12:46:00,
2013-09-08 07:51:00,53.5,53.2,21.29,East,79,0.0,0.0,99,-99.99,,CLR,-99.99,VWS V14.01,2013-09-08 12:51:00,
2013-09-08 07:56:00,53.9,53.6,21.29,East,79,0.0,0.0,99,-99.99,,CLR,-99.99,VWS V14.01,2013-09-08 12:56:00,
2013-09-08 08:01:00,54.3,54.0,21.30,East,79,0.0,0.0,99,-99.99,,CLR,-99.99,VWS V14.01,2013-09-08 13:01:00,
2013-09-08 08:06:00,54.7,54.4,21.30,East,79,0.0,0.0,99,-99.99,,CLR,-99.99,VWS V14.01,2013-09-08 13:06:00,
2013-09-08 08:11:00,55.1,54.8,21.30,East,79,0.0,0.0,99,-99.99,,CLR,-99.99,VWS V14.01,2013-09-08 13:11:00,
2013-09-08 08:16:00,55.4,55.1,21.30,East,79,0.0,0.0,99,-99.99,,CLR,-99.99,VWS V14.01,2013-09-08 13:16:00,
2013-09-08 08:22:00,55.8,55.2,21.30,East,79,0.0,0.0,98,-99.99,,CLR,-99.99,VWS V14.01,2013-09-08 13:22:00,
2013-09-08 08:27:00,56.1,55.5,21.30,East,79,0.0,0.0,98,-99.99,,CLR,-99.99,VWS V14.01,2013-09-08 13:27:00,
2013-09-08 08:32:00,56.4,55.6,21.30,East,79,0.0,0.0,97,-99.99,,CLR,-99.99,VWS V14.01,2013-09-08 13:32:00,
2013-09-08 08:37:00,56.8,56.0,21.30,East,79,0.0,0.0,97,-99.99,,CLR,-99.99,VWS V14.01,2013-09-08 13:37:00,
2013-09-08 08:42:00,57.1,56.0,21.30,East,79,0.0,0.0,96,-99.99,,CLR,-99.99,VWS V14.01,2013-09-08 13:42:00,
2013-09-08 08:47:00,57.4,56.0,21.29,East,79,0.0,0.0,95,-99.99,,CLR,-99.99,VWS V14.01,2013-09-08 13:47:00,
2013-09-08 08:52:00,57.7,56.0,21.30,ENE,77,0.0,3.0,94,-99.99,,CLR,-99.99,VWS V14.01,2013-09-08 13:52:00,
2013-09-08 08:57:00,58.0,56.0,21.29,NE,53,0.0,3.0,93,-99.99,,CLR,-99.99,VWS V14.01,2013-09-08 13:57:00,
2013-09-08 09:02:00,58.3,56.0,21.29,SSW,200,0.0,1.0,92,-99.99,,CLR,-99.99,VWS V14.01,2013-09-08 14:02:00,
2013-09-08 09:07:00,58.6,56.0,21.29,SW,223,0.0,4.0,91,-99.99,,CLR,-99.99,VWS V14.01,2013-09-08 14:07:00,
2013-09-08 09:12:00,58.9,56.0,21.29,SE,140,1.0,5.0,90,-99.99,,CLR,-99.99,VWS V14.01,2013-09-08 14:12:00,
2013-09-08 09:17:00,59.2,56.0,21.29,WSW,237,2.0,5.0,89,-99.99,,CLR,-99.99,VWS V14.01,2013-09-08 14:17:00,
2013-09-08 09:22:00,59.4,55.8,21.29,WSW,250,0.0,5.0,88,-99.99,,CLR,-99.99,VWS V14.01,2013-09-08 14:22:00,
2013-09-08 09:27:00,59.6,56.0,21.28,SSW,199,6.0,7.0,88,-99.99,,CLR,-99.99,VWS V14.01,2013-09-08 14:27:00,
2013-09-08 09:33:00,59.9,56.3,21.28,SE,131,1.0,6.0,88,-99.99,,CLR,-99.99,VWS V14.01,2013-09-08 14:33:00,
2013-09-08 09:38:00,60.1,56.2,21.28,South,179,0.0,6.0,87,-99.99,,CLR,-99.99,VWS V14.01,2013-09-08 14:38:00,
2013-09-08 09:43:00,60.4,56.2,21.28,SSE,148,0.0,6.0,86,-99.99,,CLR,-99.99,VWS V14.01,2013-09-08 14:43:00,
2013-09-08 09:48:00,60.7,56.2,21.28,SSE,168,2.0,7.0,85,-99.99,,CLR,-99.99,VWS V14.01,2013-09-08 14:48:00,
2013-09-08 09:53:00,60.9,56.4,21.27,SSW,206,0.0,8.0,85,-99.99,,CLR,-99.99,VWS V14.01,2013-09-08 14:53:00,
2013-09-08 09:58:00,61.2,56.7,21.27,NNE,32,0.0,8.0,85,-99.99,,CLR,-99.99,VWS V14.01,2013-09-08 14:58:00,
2013-09-08 10:03:00,61.4,56.9,21.27,South,189,0.0,5.0,85,-99.99,,CLR,-99.99,VWS V14.01,2013-09-08 15:03:00,
2013-09-08 10:08:00,61.6,56.7,21.28,NW,314,0.0,5.0,84,-99.99,,CLR,-99.99,VWS V14.01,2013-09-08 15:08:00,
2013-09-08 10:13:00,61.8,56.9,21.28,NE,53,0.0,9.0,84,-99.99,,CLR,-99.99,VWS V14.01,2013-09-08 15:13:00,
2013-09-08 10:18:00,62.1,57.2,21.28,SSW,205,0.0,9.0,84,-99.99,,CLR,-99.99,VWS V14.01,2013-09-08 15:18:00,
2013-09-08 10:23:00,62.4,57.2,21.28,SW,218,0.0,9.0,83,-99.99,,CLR,-99.99,VWS V14.01,2013-09-08 15:23:00,
2013-09-08 10:28:00,62.7,57.5,21.28,ESE,104,0.0,9.0,83,-99.99,,CLR,-99.99,VWS V14.01,2013-09-08 15:28:00,
2013-09-08 10:33:00,63.0,58.1,21.28,SW,220,0.0,5.0,84,-99.99,,CLR,-99.99,VWS V14.01,2013-09-08 15:33:00,
2013-09-08 10:38:00,63.3,58.1,21.27,NW,316,0.0,5.0,83,-99.99,,CLR,-99.99,VWS V14.01,2013-09-08 15:38:00,
2013-09-08 10:43:00,63.7,58.1,21.28,South,184,3.0,5.0,82,-99.99,,CLR,-99.99,VWS V14.01,2013-09-08 15:43:00,
2013-09-08 10:48:00,64.1,58.8,21.28,West,269,0.0,5.0,83,-99.99,,CLR,-99.99,VWS V14.01,2013-09-08 15:48:00,
2013-09-08 10:53:00,64.3,58.0,21.28,SW,222,0.0,8.0,80,-99.99,,CLR,-99.99,VWS V14.01,2013-09-08 15:53:00,
2013-09-08 10:58:00,64.6,58.0,21.28,WNW,282,0.0,8.0,79,-99.99,,CLR,-99.99,VWS V14.01,2013-09-08 15:58:00,
2013-09-08 11:03:00,64.9,57.5,21.28,WSW,244,0.0,5.0,77,-99.99,,CLR,-99.99,VWS V14.01,2013-09-08 16:03:00,
2013-09-08 11:08:00,65.0,56.9,21.28,WSW,245,0.0,5.0,75,-99.99,,CLR,-99.99,VWS V14.01,2013-09-08 16:08:00,
2013-09-08 11:13:00,65.2,56.7,21.28,SSW,192,0.0,5.0,74,-99.99,,CLR,-99.99,VWS V14.01,2013-09-08 16:13:00,
2013-09-08 11:19:00,65.4,57.3,21.28,South,175,0.0,5.0,75,-99.99,,CLR,-99.99,VWS V14.01,2013-09-08 16:19:00,
2013-09-08 11:24:00,65.6,56.7,21.28,West,260,4.0,6.0,73,-99.99,,CLR,-99.99,VWS V14.01,2013-09-08 16:24:00,
2013-09-08 11:29:00,65.7,56.8,21.28,SW,225,0.0,8.0,73,-99.99,,CLR,-99.99,VWS V14.01,2013-09-08 16:29:00,
2013-09-08 11:34:00,66.0,57.5,21.27,West,267,0.0,0.0,74,-99.99,,CLR,-99.99,VWS V14.01,2013-09-08 16:34:00,
2013-09-08 11:39:00,66.2,56.9,21.27,WSW,240,2.0,8.0,72,-99.99,,CLR,-99.99,VWS V14.01,2013-09-08 16:39:00,
2013-09-08 11:44:00,66.4,56.3,21.27,SSE,163,0.0,8.0,70,-99.99,,CLR,-99.99,VWS V14.01,2013-09-08 16:44:00,
2013-09-08 11:49:00,66.8,56.3,21.27,SSW,193,3.0,8.0,69,-99.99,,CLR,-99.99,VWS V14.01,2013-09-08 16:49:00,
2013-09-08 11:54:00,67.1,56.2,21.26,East,90,0.0,10.0,68,-99.99,,CLR,-99.99,VWS V14.01,2013-09-08 16:54:00,
2013-09-08 11:59:00,67.3,56.0,21.26,WNW,294,2.0,10.0,67,-99.99,,CLR,-99.99,VWS V14.01,2013-09-08 16:59:00,
2013-09-08 12:04:00,67.3,56.0,21.26,North,0,0.0,11.0,67,-99.99,,CLR,-99.99,VWS V14.01,2013-09-08 17:04:00,
2013-09-08 12:09:00,67.6,55.8,21.26,South,177,0.0,11.0,66,-99.99,,CLR,-99.99,VWS V14.01,2013-09-08 17:09:00,
2013-09-08 12:14:00,68.0,56.2,21.26,SW,214,7.0,11.0,66,-99.99,,CLR,-99.99,VWS V14.01,2013-09-08 17:14:00,
2013-09-08 12:19:00,68.1,55.9,21.26,SW,227,1.0,11.0,65,-99.99,,CLR,-99.99,VWS V14.01,2013-09-08 17:19:00,
2013-09-08 12:24:00,68.4,57.0,21.26,WNW,282,9.0,13.0,67,-99.99,,CLR,-99.99,VWS V14.01,2013-09-08 17:24:00,
2013-09-08 12:29:00,68.5,56.7,21.26,West,259,0.0,13.0,66,-99.99,,CLR,-99.99,VWS V14.01,2013-09-08 17:29:00,
2013-09-08 12:34:00,68.7,56.5,21.25,SSW,209,0.0,7.0,65,-99.99,,CLR,-99.99,VWS V14.01,2013-09-08 17:34:00,
2013-09-08 12:39:00,68.9,56.2,21.25,South,175,0.0,10.0,64,-99.99,,CLR,-99.99,VWS V14.01,2013-09-08 17:39:00,
2013-09-08 12:44:00,69.0,56.3,21.25,WSW,245,3.0,10.0,64,-99.99,,CLR,-99.99,VWS V14.01,2013-09-08 17:44:00,
2013-09-08 12:49:00,69.2,56.1,21.25,ENE,60,0.0,10.0,63,-99.99,,CLR,-99.99,VWS V14.01,2013-09-08 17:49:00,
2013-09-08 12:54:00,69.6,56.5,21.24,SW,230,0.0,10.0,63,-99.99,,CLR,-99.99,VWS V14.01,2013-09-08 17:54:00,
2013-09-08 12:59:00,69.8,55.8,21.24,NE,41,2.0,10.0,61,-99.99,,CLR,-99.99,VWS V14.01,2013-09-08 17:59:00,
2013-09-08 13:04:00,70.0,56.0,21.24,SSW,212,1.0,7.0,61,-99.99,,CLR,-99.99,VWS V14.01,2013-09-08 18:04:00,
2013-09-08 13:09:00,70.3,57.6,21.24,WSW,242,0.0,10.0,64,-99.99,,CLR,-99.99,VWS V14.01,2013-09-08 18:09:00,
2013-09-08 13:15:00,70.7,56.2,21.24,South,180,3.0,10.0,60,-99.99,,CLR,-99.99,VWS V14.01,2013-09-08 18:15:00,
2013-09-08 13:20:00,70.6,56.5,21.24,SSE,151,0.0,10.0,61,-99.99,,CLR,-99.99,VWS V14.01,2013-09-08 18:20:00,
2013-09-08 13:25:00,70.9,56.8,21.24,SSW,201,0.0,10.0,61,-99.99,,CLR,-99.99,VWS V14.01,2013-09-08 18:25:00,
2013-09-08 13:30:00,71.0,56.0,21.25,SSE,154,0.0,10.0,59,-99.99,,CLR,-99.99,VWS V14.01,2013-09-08 18:30:00,
2013-09-08 13:35:00,71.0,55.5,21.24,West,268,2.0,11.0,58,-99.99,,CLR,-99.99,VWS V14.01,2013-09-08 18:35:00,
2013-09-08 13:40:00,71.2,55.7,21.25,SSW,202,5.0,11.0,58,-99.99,,CLR,-99.99,VWS V14.01,2013-09-08 18:40:00,
2013-09-08 13:45:00,71.0,55.5,21.25,NW,313,1.0,11.0,58,-99.99,,CLR,-99.99,VWS V14.01,2013-09-08 18:45:00,
2013-09-08 13:50:00,70.9,55.4,21.25,SW,224,0.0,11.0,58,-99.99,,CLR,-99.99,VWS V14.01,2013-09-08 18:50:00,
2013-09-08 13:55:00,71.0,56.0,21.24,SW,231,0.0,11.0,59,-99.99,,CLR,-99.99,VWS V14.01,2013-09-08 18:55:00,
2013-09-08 14:00:00,71.1,55.6,21.24,South,177,1.0,1.0,58,-99.99,,CLR,-99.99,VWS V14.01,2013-09-08 19:00:00,
2013-09-08 14:05:00,71.0,55.5,21.24,East,94,0.0,10.0,58,-99.99,,FEW042,-99.99,VWS V14.01,2013-09-08 19:05:00,
2013-09-08 14:10:00,70.9,56.3,21.24,South,170,4.0,10.0,60,-99.99,,FEW042,-99.99,VWS V14.01,2013-09-08 19:10:00,
2013-09-08 14:15:00,70.8,55.8,21.24,South,175,0.0,10.0,59,-99.99,,FEW042,-99.99,VWS V14.01,2013-09-08 19:15:00,
2013-09-08 14:20:00,70.8,55.3,21.24,East,82,0.0,10.0,58,-99.99,,FEW042,-99.99,VWS V14.01,2013-09-08 19:20:00,
2013-09-08 14:25:00,71.0,56.4,21.23,NW,319,3.0,10.0,60,-99.99,,FEW042,-99.99,VWS V14.01,2013-09-08 19:25:00,
2013-09-08 14:30:00,71.2,57.1,21.23,South,185,2.0,2.0,61,-99.99,,FEW042,-99.99,VWS V14.01,2013-09-08 19:30:00,
2013-09-08 14:35:00,71.3,55.8,21.23,ENE,75,1.0,4.0,58,-99.99,,FEW042,-99.99,VWS V14.01,2013-09-08 19:35:00,
2013-09-08 14:40:00,71.4,56.3,21.22,SSW,200,0.0,4.0,59,-99.99,,FEW042,-99.99,VWS V14.01,2013-09-08 19:40:00,
2013-09-08 14:45:00,71.4,56.8,21.22,ENE,66,0.0,6.0,60,-99.99,,FEW042,-99.99,VWS V14.01,2013-09-08 19:45:00,
2013-09-08 14:50:00,71.5,57.4,21.22,ENE,66,0.0,6.0,61,-99.99,,FEW042,-99.99,VWS V14.01,2013-09-08 19:50:00,
2013-09-08 14:55:00,71.5,55.5,21.22,SW,222,0.0,8.0,57,-99.99,,FEW042,-99.99,VWS V14.01,2013-09-08 19:55:00,
2013-09-08 15:00:00,71.2,56.6,21.21,WSW,258,0.0,6.0,60,-99.99,,CLR,-99.99,VWS V14.01,2013-09-08 20:00:00,
2013-09-08 15:05:00,71.2,56.6,21.22,WSW,242,0.0,7.0,60,-99.99,,CLR,-99.99,VWS V14.01,2013-09-08 20:05:00,
2013-09-08 15:10:00,71.2,57.5,21.21,South,172,0.0,7.0,62,-99.99,,CLR,-99.99,VWS V14.01,2013-09-08 20:10:00,
2013-09-08 15:15:00,71.1,57.0,21.21,East,83,0.0,8.0,61,-99.99,,CLR,-99.99,VWS V14.01,2013-09-08 20:15:00,
2013-09-08 15:20:00,71.0,56.9,21.21,ENE,75,0.0,10.0,61,-99.99,,CLR,-99.99,VWS V14.01,2013-09-08 20:20:00,
2013-09-08 15:26:00,71.0,57.8,21.20,ESE,112,0.0,10.0,63,-99.99,,CLR,-99.99,VWS V14.01,2013-09-08 20:26:00,
2013-09-08 15:31:00,71.0,56.9,21.20,West,261,0.0,1.0,61,-99.99,,CLR,-99.99,VWS V14.01,2013-09-08 20:31:00,
2013-09-08 15:36:00,70.8,56.7,21.20,South,182,0.0,10.0,61,-99.99,,CLR,-99.99,VWS V14.01,2013-09-08 20:36:00,
2013-09-08 15:41:00,70.6,56.5,21.20,West,275,0.0,10.0,61,-99.99,,CLR,-99.99,VWS V14.01,2013-09-08 20:41:00,
2013-09-08 15:46:00,70.6,57.0,21.20,SW,230,0.0,10.0,62,-99.99,,CLR,-99.99,VWS V14.01,2013-09-08 20:46:00,
2013-09-08 15:51:00,70.6,56.5,21.20,SW,224,0.0,10.0,61,-99.99,,CLR,-99.99,VWS V14.01,2013-09-08 20:51:00,
2013-09-08 15:56:00,70.4,56.3,21.19,SW,228,0.0,10.0,61,-99.99,,CLR,-99.99,VWS V14.01,2013-09-08 20:56:00,
2013-09-08 16:01:00,70.4,57.7,21.19,SW,216,0.0,5.0,64,-99.99,,CLR,-99.99,VWS V14.01,2013-09-08 21:01:00,
2013-09-08 16:06:00,70.3,57.1,21.19,WSW,244,0.0,5.0,63,-99.99,,CLR,-99.99,VWS V14.01,2013-09-08 21:06:00,
2013-09-08 16:11:00,70.3,58.0,21.19,SSE,153,0.0,7.0,65,-99.99,,CLR,-99.99,VWS V14.01,2013-09-08 21:11:00,
2013-09-08 16:16:00,70.3,57.6,21.19,SSW,212,0.0,7.0,64,-99.99,,CLR,-99.99,VWS V14.01,2013-09-08 21:16:00,
2013-09-08 16:21:00,70.2,57.9,21.19,South,185,0.0,7.0,65,-99.99,,CLR,-99.99,VWS V14.01,2013-09-08 21:21:00,
2013-09-08 16:26:00,70.1,57.8,21.19,South,187,0.0,7.0,65,-99.99,,CLR,-99.99,VWS V14.01,2013-09-08 21:26:00,
2013-09-08 16:31:00,70.1,58.2,21.18,SSW,212,0.0,0.0,66,-99.99,,CLR,-99.99,VWS V14.01,2013-09-08 21:31:00,
2013-09-08 16:36:00,70.1,58.2,21.18,South,188,0.0,0.0,66,-99.99,,CLR,-99.99,VWS V14.01,2013-09-08 21:36:00,
2013-09-08 16:41:00,70.0,59.0,21.18,South,190,0.0,0.0,68,-99.99,,CLR,-99.99,VWS V14.01,2013-09-08 21:41:00,
2013-09-08 16:47:00,69.8,58.8,21.18,SSW,198,0.0,6.0,68,-99.99,,CLR,-99.99,VWS V14.01,2013-09-08 21:47:00,
2013-09-08 16:52:00,69.6,58.6,21.17,South,175,0.0,7.0,68,-99.99,,CLR,-99.99,VWS V14.01,2013-09-08 21:52:00,
2013-09-08 16:57:00,69.4,58.4,21.18,WSW,249,0.0,7.0,68,-99.99,,CLR,-99.99,VWS V14.01,2013-09-08 21:57:00,
2013-09-08 17:02:00,69.4,58.4,21.18,SW,231,2.0,5.0,68,-99.99,,CLR,-99.99,VWS V14.01,2013-09-08 22:02:00,
2013-09-08 17:07:00,69.3,58.7,21.18,West,261,0.0,5.0,69,-99.99,,CLR,-99.99,VWS V14.01,2013-09-08 22:07:00,
2013-09-08 17:12:00,69.0,58.0,21.18,SW,217,0.0,8.0,68,-99.99,,CLR,-99.99,VWS V14.01,2013-09-08 22:12:00,
2013-09-08 17:17:00,68.8,57.8,21.18,WSW,258,1.0,8.0,68,-99.99,,CLR,-99.99,VWS V14.01,2013-09-08 22:17:00,
2013-09-08 17:22:00,68.7,58.1,21.17,NW,307,0.0,8.0,69,-99.99,,CLR,-99.99,VWS V14.01,2013-09-08 22:22:00,
2013-09-08 17:27:00,68.5,58.3,21.17,WSW,256,0.0,8.0,70,-99.99,,CLR,-99.99,VWS V14.01,2013-09-08 22:27:00,
2013-09-08 17:32:00,68.4,58.2,21.17,SW,231,0.0,0.0,70,-99.99,,CLR,-99.99,VWS V14.01,2013-09-08 22:32:00,
2013-09-08 17:37:00,68.3,58.5,21.16,South,186,0.0,5.0,71,-99.99,,CLR,-99.99,VWS V14.01,2013-09-08 22:37:00,
2013-09-08 17:42:00,68.2,58.5,21.16,SSW,201,0.0,5.0,71,-99.99,,CLR,-99.99,VWS V14.01,2013-09-08 22:42:00,
2013-09-08 17:47:00,68.0,58.7,21.16,SSW,201,0.0,5.0,72,-99.99,,CLR,-99.99,VWS V14.01,2013-09-08 22:47:00,
2013-09-08 17:52:00,67.9,58.5,21.16,South,189,0.0,5.0,72,-99.99,,CLR,-99.99,VWS V14.01,2013-09-08 22:52:00,
2013-09-08 17:57:00,67.7,58.0,21.15,SSW,194,0.0,5.0,71,-99.99,,CLR,-99.99,VWS V14.01,2013-09-08 22:57:00,
2013-09-08 18:02:00,67.5,57.8,21.16,SW,215,0.0,4.0,71,-99.99,,SCT060,-99.99,VWS V14.01,2013-09-08 23:02:00,
2013-09-08 18:07:00,67.4,57.3,21.16,SW,221,0.0,4.0,70,-99.99,,SCT060,-99.99,VWS V14.01,2013-09-08 23:07:00,
2013-09-08 18:12:00,67.3,57.6,21.15,SW,224,0.0,4.0,71,-99.99,,SCT060,-99.99,VWS V14.01,2013-09-08 23:12:00,
2013-09-08 18:17:00,67.1,57.0,21.15,SSW,212,0.0,4.0,70,-99.99,,SCT060,-99.99,VWS V14.01,2013-09-08 23:17:00,
2013-09-08 18:22:00,67.0,57.3,21.15,SSW,209,0.0,4.0,71,-99.99,,SCT060,-99.99,VWS V14.01,2013-09-08 23:22:00,
2013-09-08 18:27:00,66.9,57.2,21.15,SSW,209,0.0,4.0,71,-99.99,,SCT060,-99.99,VWS V14.01,2013-09-08 23:27:00,
2013-09-08 18:32:00,66.7,57.4,21.15,SSW,209,0.0,0.0,72,-99.99,,SCT060,-99.99,VWS V14.01,2013-09-08 23:32:00,
2013-09-08 18:37:00,66.5,57.6,21.15,SSW,209,0.0,0.0,73,-99.99,,SCT060,-99.99,VWS V14.01,2013-09-08 23:37:00,
2013-09-08 18:43:00,66.4,57.9,21.15,SSW,209,0.0,0.0,74,-99.99,,SCT060,-99.99,VWS V14.01,2013-09-08 23:43:00,
2013-09-08 18:48:00,66.2,57.3,21.15,SSW,209,0.0,0.0,73,-99.99,,SCT060,-99.99,VWS V14.01,2013-09-08 23:48:00,
2013-09-08 18:53:00,66.2,57.7,21.15,SSW,209,0.0,0.0,74,-99.99,,SCT060,-99.99,VWS V14.01,2013-09-08 23:53:00,
2013-09-08 18:58:00,65.9,57.8,21.14,SSW,209,0.0,0.0,75,-99.99,,SCT060,-99.99,VWS V14.01,2013-09-08 23:58:00,
2013-09-08 19:03:00,65.9,57.8,21.15,SSW,209,0.0,0.0,75,-99.99,,OVC055,-99.99,VWS V14.01,2013-09-09 00:03:00,
2013-09-08 19:08:00,65.8,57.7,21.14,SSW,209,0.0,0.0,75,-99.99,,OVC055,-99.99,VWS V14.01,2013-09-09 00:08:00,
2013-09-08 19:13:00,65.7,57.9,21.14,SSW,209,0.0,0.0,76,-99.99,,OVC055,-99.99,VWS V14.01,2013-09-09 00:13:00,
2013-09-08 19:18:00,65.4,57.3,21.14,SSW,192,0.0,0.0,75,-99.99,,OVC055,-99.99,VWS V14.01,2013-09-09 00:18:00,
2013-09-08 19:23:00,65.2,56.3,21.13,SSW,194,0.0,0.0,73,-99.99,,OVC055,-99.99,VWS V14.01,2013-09-09 00:23:00,
2013-09-08 19:28:00,65.1,56.6,21.13,SSW,196,0.0,0.0,74,-99.99,,OVC055,-99.99,VWS V14.01,2013-09-09 00:28:00,
2013-09-08 19:33:00,65.0,56.2,21.13,SSW,198,0.0,0.0,73,-99.99,,OVC055,-99.99,VWS V14.01,2013-09-09 00:33:00,
2013-09-08 19:38:00,64.9,56.0,21.12,South,174,0.0,5.0,73,-99.99,,OVC055,-99.99,VWS V14.01,2013-09-09 00:38:00,
2013-09-08 19:43:00,64.7,55.9,21.13,SW,219,0.0,7.0,73,-99.99,,OVC055,-99.99,VWS V14.01,2013-09-09 00:43:00,
2013-09-08 19:48:00,64.5,55.7,21.12,West,281,0.0,7.0,73,-99.99,,OVC055,-99.99,VWS V14.01,2013-09-09 00:48:00,
2013-09-08 19:53:00,64.3,55.5,21.12,WSW,254,0.0,7.0,73,-99.99,,OVC055,-99.99,VWS V14.01,2013-09-09 00:53:00,
2013-09-08 19:58:00,64.2,55.8,21.12,SW,226,0.0,7.0,74,-99.99,,OVC055,-99.99,VWS V14.01,2013-09-09 00:58:00,
2013-09-08 20:03:00,64.0,55.9,21.12,SW,224,0.0,2.0,75,-99.99,,OVC055,-99.99,VWS V14.01,2013-09-09 01:03:00,
2013-09-08 20:08:00,63.9,56.2,21.12,SW,221,0.0,6.0,76,-99.99,,OVC055,-99.99,VWS V14.01,2013-09-09 01:08:00,
2013-09-08 20:13:00,63.6,56.3,21.12,WNW,303,0.0,6.0,77,-99.99,,OVC055,-99.99,VWS V14.01,2013-09-09 01:13:00,
2013-09-08 20:18:00,63.5,56.5,21.12,South,170,0.0,6.0,78,-99.99,,OVC055,-99.99,VWS V14.01,2013-09-09 01:18:00,
2013-09-08 20:23:00,63.4,56.4,21.12,WSW,249,0.0,6.0,78,-99.99,,OVC055,-99.99,VWS V14.01,2013-09-09 01:23:00,
2013-09-08 20:28:00,63.2,56.2,21.12,SSE,149,0.0,6.0,78,-99.99,,OVC055,-99.99,VWS V14.01,2013-09-09 01:28:00,
2013-09-08 20:33:00,63.0,56.4,21.12,SSE,156,0.0,0.0,79,-99.99,,OVC055,-99.99,VWS V14.01,2013-09-09 01:33:00,
2013-09-08 20:39:00,62.9,56.6,21.12,SSW,196,0.0,8.0,80,-99.99,,OVC055,-99.99,VWS V14.01,2013-09-09 01:39:00,
2013-09-08 20:44:00,62.6,56.7,21.12,South,173,0.0,8.0,81,-99.99,,OVC055,-99.99,VWS V14.01,2013-09-09 01:44:00,
2013-09-08 20:49:00,62.3,56.7,21.11,SSW,210,0.0,8.0,82,-99.99,,OVC055,-99.99,VWS V14.01,2013-09-09 01:49:00,
2013-09-08 20:54:00,62.3,57.1,21.11,West,267,0.0,8.0,83,-99.99,,OVC055,-99.99,VWS V14.01,2013-09-09 01:54:00,
2013-09-08 20:59:00,62.1,56.9,21.11,SW,225,0.0,8.0,83,-99.99,,OVC055,-99.99,VWS V14.01,2013-09-09 01:59:00,
2013-09-08 21:04:00,62.0,57.1,21.11,SW,226,0.0,0.0,84,-99.99,,OVC045,-99.99,VWS V14.01,2013-09-09 02:04:00,
2013-09-08 21:09:00,61.9,57.0,21.11,SW,226,0.0,0.0,84,-99.99,,OVC045,-99.99,VWS V14.01,2013-09-09 02:09:00,
2013-09-08 21:14:00,61.7,57.2,21.11,West,272,0.0,4.0,85,-99.99,,OVC045,-99.99,VWS V14.01,2013-09-09 02:14:00,
2013-09-08 21:19:00,61.6,57.4,21.11,WSW,238,0.0,4.0,86,-99.99,,OVC045,-99.99,VWS V14.01,2013-09-09 02:19:00,
2013-09-08 21:24:00,61.5,57.3,21.11,WSW,240,2.0,5.0,86,-99.99,,OVC045,-99.99,VWS V14.01,2013-09-09 02:24:00,
2013-09-08 21:29:00,61.2,57.3,21.11,South,171,0.0,5.0,87,-99.99,,OVC045,-99.99,VWS V14.01,2013-09-09 02:29:00,
2013-09-08 21:34:00,61.0,57.1,21.10,South,185,0.0,6.0,87,-99.99,,OVC045,-99.99,VWS V14.01,2013-09-09 02:34:00,
2013-09-08 21:39:00,60.8,57.2,21.10,SSW,207,0.0,6.0,88,-99.99,,OVC045,-99.99,VWS V14.01,2013-09-09 02:39:00,
2013-09-08 21:44:00,60.7,57.1,21.09,SW,220,0.0,10.0,88,-99.99,,OVC045,-99.99,VWS V14.01,2013-09-09 02:44:00,
2013-09-08 21:49:00,60.5,57.2,21.09,South,187,0.0,10.0,89,-99.99,,OVC045,-99.99,VWS V14.01,2013-09-09 02:49:00,
2013-09-08 21:54:00,60.4,57.2,21.09,SW,216,0.0,10.0,89,-99.99,,OVC045,-99.99,VWS V14.01,2013-09-09 02:54:00,
2013-09-08 21:59:00,60.2,57.3,21.09,South,175,0.0,10.0,90,-99.99,,OVC045,-99.99,VWS V14.01,2013-09-09 02:59:00,
2013-09-08 22:04:00,60.1,57.2,21.08,South,188,0.0,3.0,90,-99.99,,OVC028,-99.99,VWS V14.01,2013-09-09 03:04:00,
2013-09-08 22:09:00,60.0,57.1,21.08,South,188,0.0,3.0,90,-99.99,,OVC028,-99.99,VWS V14.01,2013-09-09 03:09:00,
2013-09-08 22:14:00,59.9,57.3,21.08,SW,234,0.0,4.0,91,-99.99,,OVC028,-99.99,VWS V14.01,2013-09-09 03:14:00,
2013-09-08 22:19:00,59.8,57.2,21.08,SW,223,0.0,4.0,91,-99.99,,OVC028,-99.99,VWS V14.01,2013-09-09 03:19:00,
2013-09-08 22:24:00,59.8,57.2,21.08,SSW,209,0.0,4.0,91,-99.99,,OVC028,-99.99,VWS V14.01,2013-09-09 03:24:00,
2013-09-08 22:29:00,59.7,57.4,21.08,SSW,200,0.0,7.0,92,-99.99,,OVC028,-99.99,VWS V14.01,2013-09-09 03:29:00,
2013-09-08 22:35:00,59.7,57.4,21.08,SSW,192,0.0,0.0,92,-99.99,,OVC028,-99.99,VWS V14.01,2013-09-09 03:35:00,
2013-09-08 22:40:00,59.7,57.4,21.08,South,187,0.0,0.0,92,-99.99,,OVC028,-99.99,VWS V14.01,2013-09-09 03:40:00,
2013-09-08 22:45:00,59.7,57.4,21.08,South,187,0.0,0.0,92,-99.99,,OVC028,-99.99,VWS V14.01,2013-09-09 03:45:00,
2013-09-08 22:50:00,59.7,57.4,21.08,SW,224,0.0,4.0,92,-99.99,,OVC028,-99.99,VWS V14.01,2013-09-09 03:50:00,
2013-09-08 22:55:00,59.6,57.6,21.08,SW,231,1.0,4.0,93,-99.99,,OVC028,-99.99,VWS V14.01,2013-09-09 03:55:00,
2013-09-08 23:00:00,59.6,57.6,21.08,SW,230,0.0,0.0,93,-99.99,,OVC021,-99.99,VWS V14.01,2013-09-09 04:00:00,
2013-09-08 23:01:00,59.6,57.6,21.08,SW,214,0.0,0.0,93,-99.99,,OVC021,-99.99,VWS V14.01,2013-09-09 04:01:00,
2013-09-08 23:03:00,59.6,57.3,21.08,SW,215,0.0,3.0,92,-99.99,,OVC021,-99.99,VWS V14.01,2013-09-09 04:03:00,
2013-09-08 23:06:00,59.6,57.3,21.08,SSE,156,0.0,5.0,92,-99.99,,OVC021,-99.99,VWS V14.01,2013-09-09 04:06:00,
2013-09-08 23:11:00,59.6,57.6,21.08,SSW,205,0.0,5.0,93,-99.99,,OVC021,-99.99,VWS V14.01,2013-09-09 04:11:00,
2013-09-08 23:16:00,59.6,57.6,21.08,South,184,0.0,6.0,93,-99.99,,OVC021,-99.99,VWS V14.01,2013-09-09 04:16:00,
2013-09-08 23:21:00,59.6,57.9,21.08,South,182,0.0,6.0,94,-99.99,,OVC021,-99.99,VWS V14.01,2013-09-09 04:21:00,
2013-09-08 23:26:00,59.7,58.0,21.08,South,184,0.0,6.0,94,-99.99,,OVC021,-99.99,VWS V14.01,2013-09-09 04:26:00,
2013-09-08 23:32:00,59.7,58.3,21.08,South,184,0.0,0.0,95,-99.99,,OVC021,-99.99,VWS V14.01,2013-09-09 04:32:00,
2013-09-08 23:37:00,59.7,58.3,21.07,South,184,0.0,0.0,95,-99.99,,OVC021,-99.99,VWS V14.01,2013-09-09 04:37:00,
2013-09-08 23:42:00,59.6,58.2,21.07,South,184,0.0,0.0,95,-99.99,,OVC021,-99.99,VWS V14.01,2013-09-09 04:42:00,
2013-09-08 23:47:00,59.5,58.4,21.07,South,184,0.0,0.0,96,-99.99,,OVC021,-99.99,VWS V14.01,2013-09-09 04:47:00,
2013-09-08 23:52:00,59.5,58.4,21.07,South,184,0.0,0.0,96,-99.99,,OVC021,-99.99,VWS V14.01,2013-09-09 04:52:00,
2013-09-08 23:57:00,59.5,58.7,21.06,South,184,0.0,0.0,97,-99.99,,OVC021,-99.99,VWS V14.01,2013-09-09 04:57:00,